| time (UTC) | temp F | wind direction | speed knots | gust knots | rain 1hr in | rain 24hr in | rain mn in | humidity % | barometer mb |
| 20260505164539 | 59 | 45 | 5.2 | 16.5 | 0.00 | 0.00 | 0.00 | 69 | 1010.7 |
| 20260505163538 | 59 | 45 | 5.2 | 16.5 | 0.00 | 0.00 | 0.00 | 70 | 1010.7 |
| 20260505162537 | 59 | 45 | 6.1 | 16.5 | 0.00 | 0.00 | 0.00 | 69 | 1010.8 |
| 20260505161536 | 60 | 68 | 6.1 | 16.5 | 0.00 | 0.00 | 0.00 | 68 | 1010.9 |
| 20260505160536 | 60 | 68 | 5.2 | 16.5 | 0.00 | 0.00 | 0.00 | 67 | 1010.9 |
| 20260505152532 | 59 | 0 | 5.2 | 16.5 | 0.00 | 0.00 | 0.00 | 71 | 1010.9 |
| 20260505151531 | 59 | 68 | 5.2 | 16.5 | 0.00 | 0.00 | 0.00 | 68 | 1011.0 |
| 20260505150531 | 61 | 45 | 5.2 | 16.5 | 0.00 | 0.00 | 0.00 | 65 | 1011.0 |
| 20260505140525 | 60 | 45 | 5.2 | 16.5 | 0.00 | 0.00 | 0.00 | 67 | 1011.2 |
| 20260505124519 | 61 | 45 | 5.2 | 16.5 | 0.00 | 0.00 | 0.00 | 67 | 1011.7 |
| 20260505123519 | 60 | 45 | 5.2 | 16.5 | 0.00 | 0.00 | 0.00 | 69 | 1011.7 |
| 20260505122519 | 59 | 68 | 6.1 | 16.5 | 0.00 | 0.00 | 0.00 | 71 | 1011.7 |
| 20260505121518 | 59 | 68 | 6.1 | 16.5 | 0.00 | 0.00 | 0.00 | 71 | 1011.7 |
| 20260505120517 | 59 | 22 | 7.0 | 16.5 | 0.00 | 0.00 | 0.00 | 72 | 1011.8 |
| 20260505115517 | 59 | 90 | 6.1 | 14.8 | 0.00 | 0.00 | 0.00 | 71 | 1011.6 |
| 20260505114516 | 59 | 22 | 5.2 | 14.8 | 0.00 | 0.00 | 0.00 | 71 | 1011.7 |
| 20260505113515 | 58 | 112 | 5.2 | 14.8 | 0.00 | 0.00 | 0.00 | 72 | 1011.9 |
| 20260505112513 | 58 | 0 | 5.2 | 14.8 | 0.00 | 0.00 | 0.00 | 75 | 1012.0 |
| 20260505111511 | 58 | 45 | 5.2 | 14.8 | 0.00 | 0.00 | 0.00 | 75 | 1012.1 |
| 20260505110509 | 57 | 22 | 5.2 | 14.8 | 0.00 | 0.00 | 0.00 | 74 | 1012.1 |